STARLINK-5142 (53984 NORAD) Tracking and Keplerian Element Data

This shows tracking and keplerian element data for the satellite.

Feedback or suggestion? Click here.




ElementValue
Catalog53984
NameSTARLINK-5142
Epoch Orbit760
Epoch Day324.91667824
Epoch Year2022
RAAN225.4986
Inclination53.2163
Eccentricity0.0001644
Argument of Perigee71.3314
Mean Anonmoly188.5886
Mean Motion15.49954823
Decay Rate-0.00014506
L11 53984U 22125W 22324.91667824 -.00014506 00000+0 -24747-3 0 9991
L22 53984 53.2163 225.4986 0001644 71.3314 188.5886 15.49954823 7608



Live tracking and technical data element details for STARLINK-5142 (NORAD 53984). STARLINK-5142 can be tracked NOW for your location showing map with azimuth and elevation plus other details from your city location.







IsCatalogInMostPopularTable: catalog: 53984, numindb: 2
Update: records affected: 1



GetName: 53984 STARLINK-5142

Hit Count: updated at: Mon, 28 Nov 2022 21:52:03 GMT